Tracking 22124 objects as of 25-Jan-2021
HD Live streaming from Space Station
objects crossing your sky now

STARLINK-1738

Track STARLINK-1738 now!
10-day predictions
STARLINK-1738 is classified as:


NORAD ID: 46336
Int'l Code: 2020-062M
Perigee: 553.5 km
Apogee: 555.4 km
Inclination: 53.1 °
Period: 95.6 minutes
Semi major axis: 6925 km
RCS: Unknown
Launch date: September 3, 2020
Source: United States (US)
Launch site: AIR FORCE EASTERN TEST RANGE (AFETR)
aabbcc
Your satellite tracking list
Your tracking list is empty




NASA's NSSDC Master Catalog

Two Line Element Set (TLE):
1 46336U 20062M   21025.58335648  .00015907  00000-0  10852-2 0  9994
2 46336  53.0589 107.3423 0001404  79.4907  24.5325 15.06372492 23059
Source of the keplerian elements: AFSPC